Home > Time Zones > World Clock > Weather > Oman > Muscat > Past weeks

Flag for Oman Weather past 2 weeks in Muscat, Oman

Now
91 °F

Clear.


Feels Like: 111 °F
Forecast: 84 / 93 °F
Wind: 3 mph from North

Location: International Airport

Current Time: Sep 18, 2014 at 10:40:47 AM

Latest Report: Sep 18, 2014 at 9:50 AM


Visibility: 5 mi

Pressure: 29.74 "Hg

Humidity: 71%

Dew point: 81 °F

Location of MuscatLocation

Historic Weather in Muscat — Graph

°F

Muscat temperature yesterday

Maximum temperature yesterday: 90 °F (at 11:50 AM)
Minimum temperature yesterday: 81 °F (at 5:50 AM)
Average temperature yesterday: 86 °F

Past Weeks' High & Low Weather Summary

 TemperatureHumidityPressure
High109 °F (Sep 4, 10:50 AM)94% (Sep 8, 1:50 AM)29.74 "Hg (Sep 8, 1:50 AM)
Low81 °F (Sep 17, 5:50 AM)10% (Sep 5, 1:50 AM)29.45 "Hg (Sep 5, 2:50 AM)
Average90 °F70%29.60 "Hg
* Reported Sep 3 8:50 AM — Sep 18 8:50 AM, Muscat, Weather by CustomWeather, © 2014

Note: Actual official high and low records may vary slightly from our data, if they occured in-between our weather recording intervals... More about our weather records

Advertising

Muscat weather history for previous 24 hours

 ConditionsComfort  
Time TempWeatherWind HumidityBarometerVisibility
8:50 AM
Sep 18
88 °FClear.3 mph79%29.74 "Hg5 mi
7:50 AM86 °FClear.5 mph84%29.74 "Hg4 mi
6:50 AM82 °FFog.5 mph94%29.71 "Hg3 mi
5:50 AM82 °FFog.5 mph94%29.68 "Hg3 mi
4:50 AM82 °FPassing clouds.5 mph94%29.68 "Hg4 mi
3:50 AM82 °FPassing clouds.2 mph94%29.65 "Hg4 mi
2:50 AM82 °FClear.3 mph94%29.65 "Hg5 mi
1:50 AM82 °FClear.No wind94%29.65 "Hg5 mi
12:50 AM84 °FClear.3 mph89%29.62 "Hg6 mi
11:50 PM
Sep 17
84 °FClear.2 mph84%29.62 "Hg6 mi
10:50 PM84 °FClear.1 mph89%29.65 "Hg5 mi
9:50 PM84 °FClear.2 mph89%29.65 "Hg5 mi
8:50 PM84 °FClear.5 mph89%29.65 "Hg5 mi
7:50 PM84 °FClear.5 mph89%29.65 "Hg5 mi
6:50 PM84 °FPassing clouds.6 mph89%29.65 "Hg5 mi
5:50 PM86 °FPassing clouds.7 mph84%29.62 "Hg5 mi
4:50 PM88 °FPassing clouds.10 mph79%29.62 "Hg5 mi
3:50 PM88 °FPassing clouds.7 mph75%29.62 "Hg5 mi
2:50 PM90 °FPassing clouds.9 mph75%29.62 "Hg5 mi
1:50 PM90 °FPassing clouds.8 mph71%29.62 "Hg5 mi
12:50 PM90 °FPassing clouds.7 mph75%29.65 "Hg5 mi
11:50 AM90 °FClear.7 mph75%29.68 "Hg5 mi
10:50 AM88 °FClear.8 mph79%29.68 "Hg5 mi
Weather by CustomWeather, © 2014

See weather overviewHow to use our weather pages